STARLINK-1928, 46758

Orbit data source: Space-Track

STARLINK-1928, 46758 is a payload satellite owned by SpaceX/Seattle (US) in LEO that was launched on Sat, 24 Oct 2020 UTC via an FALCON 9 launch vehicle from the Air Force Eastern Test Range (AFETR). Payload-class satellites include a variety of spacecraft equipped with specific instruments for various scientific and technological missions. These include communications satellites like Starlink; space stations such as the ISS; scientific satellites like the Hubble; Earth observation satellites from companies like Planet Labs, Umbra, and HawkEye 360; GPS; miniature CubeSats for education and research; and military/defense satellites.

Loading next visibility...
Identifier
46758, 2020-074V
Orbit
LEO
Country
Flag of USUS
Related business
Manufacturer
SpaceX/Seattle
Mission
Operational Commercial Communications
Bus & Motor
STARLINK, Unknown motor
Mass
260 kg wet, ~248 kg dry
Launch date (UTC)
2020-10-24 (5 years ago)
Launch vehicle
FALCON 9
Launch site
Air Force Eastern Test Range (AFETR)
Object type
Payload
Rocket body
Debris
Shape & HBR
Box + 1 Pan, 10.1 m
Radar Cross Section
13.562 m², Large (>1 m²)

Expand to show TLE details & history
Last TLE update: 8 hours ago

TLE from 8 hours ago
0 STARLINK-1928
1 46758U 20074V   25287.00005787  .00045585  00000-0  27777-2 0  9993
2 46758  53.0544 265.1010 0001728  77.1283 126.3220 15.09951511  5754
Epoch: 2025-10-14T00:00Z
TLE epoch observation values (Epoch: 2025-10-14T00:00:04.999Z)
Latitude
-18.73252°
Longitude
76.97828°
Altitude
542.191 km
Speed
7.591 km/s
True Right ascension
06h 39m 10s
True Declination
-18° 37' 30"
Sunlit
Object was in daylight at epoch
Visualization orbit readout
Latitude
Unknown
Longitude
Unknown
Altitude
Unknown
Speed
Unknown
Apparent Right ascension
Unknown
Apparent Declination
Unknown
Sunlit
N/A
Visualization observer readout
Local Sidereal Time
02:42:09
Azimuth
Unknown
Elevation
Unknown
Doppler factor
Unknown
Orbital elements
Apogee altitude
537.814 km
Perigee altitude
535.424 km
Semi-major axis
6,914.756 km
Eccentricity
0.00017
Inclination
53.0544°
RAAN
265.101°
Arg. of periapsis
77.1283°
True anomaly
126.33795°
Mean anomaly
126.322°
Eccentric anomaly
126.32998°
Mean motion
3.77466 °/min
Orbital period
95.37 mins
BSTAR
0.0027777
Loading maneuver chart data...
Computing Atmospheric mass density...

Documentation

Showing up to 5 results
|